Regional Weather Roundup
Issued by NWS

Home | Current Version | Previous Version | Text Only | Print | Product List | Glossary Off
Versions: 1 2 3 4 5 6 7 8 9 10 11 12 13 14 15 16 17 18 19 20 21 22 23 24 25 26 27 28 29 30 31 32 33 34 35 36 37 38 39 40 41 42 43 44 45 46 47 48 49 50

000
ASUS45 KABQ 040710
RWRNM
NEW MEXICO REGIONAL WEATHER ROUNDUP
NATIONAL WEATHER SERVICE ALBUQUERQUE NM
100 AM MDT TUE AUG 04 2015

NOTE: "FAIR" MEANS FEW OR NO CLOUDS BELOW 12,000 FEET AGL WITH NO
       SIGNIFICANT WEATHER OR OBSTRUCTIONS TO VISION.

      THIS PRODUCT IS RELEASED AS TWO VERSIONS.  ONE VERSION NEAR
      THE TOP OF THE HOUR CONTAINING PRELIMINARY DATA FROM ALBUQUERQUE
      AND OTHER STATIONS.  A FINAL VERSION WITH ADDITIONAL DATA IS
      ISSUED ABOUT 10 MINUTES AFTER THE HOUR.

NMZ501-503-504-510>518-040800-
NORTHWEST PLATEAU/NORTHCENTRAL MOUNTAINS

CITY           SKY/WX    TMP DP  RH WIND       PRES   REMARKS
FARMINGTON     CLEAR     64  45  49 NE6       30.13S
LOS ALAMOS     CLEAR     68  41  37 NE6       30.27S
SANTA FE       CLEAR     61  50  67 NE6       30.19S
TAOS           CLEAR     59  43  55 NW6       30.28R
ANGEL FIRE     FAIR      49  45  88 CALM      30.37S

$$
NMZ402-403-502-505>509-040800-
WESTCENTRAL MOUNTAINS/SOUTHWEST MOUNTAINS

CITY           SKY/WX    TMP DP  RH WIND       PRES   REMARKS
GALLUP         PTCLDY    57  52  83 E3        30.22F
GRANTS         CLEAR     57  53  88 W3        30.26R
SILVER CITY      N/A     68  57  68 NE7       30.15F

$$
NMZ407-409-411-412-040800-
SOUTHERN DESERTS

CITY           SKY/WX    TMP DP  RH WIND       PRES   REMARKS
LORDSBURG      FAIR      72  55  56 S7        30.04S
DEMING         MOCLDY    79  57  46 SE9G22    30.08R
LAS CRUCES     CLOUDY    70  63  79 S14G20    30.08F
HOLLOMAN AFB   PTCLDY    76  61  58 SE21      30.04F
ALAMOGORDO     MOCLDY    77  57  50 S20G26    30.07F
T OR C         PTCLDY    75  59  57 E7        30.08R

$$
NMZ519>523-040800-
CENTRAL VALLEYS/CENTRAL HIGHLANDS

CITY           SKY/WX    TMP DP  RH WIND       PRES   REMARKS
ALBUQUERQUE    PTCLDY    74  49  41 CALM      30.13R
DOUBLE EAGLE   CLEAR     62  51  67 W7        30.16S
MORIARTY ARPT    N/A     59  49  68 N3        30.20S
CLINES CORNERS CLEAR     60  48  64 NW13      30.23S
BELEN          FAIR      71  45  39 CALM      30.12S
SOCORRO        FAIR      70  52  53 CALM      30.09R

$$
NMZ524>526-539-540-040800-
SOUTHCENTRAL MOUNTAINS

CITY           SKY/WX    TMP DP  RH WIND       PRES   REMARKS
RUIDOSO          N/A    N/A N/A N/A MISG        N/A

$$
NMZ527>531-040800-
NORTHEAST HIGHLANDS/NORTHEAST PLAINS

CITY           SKY/WX    TMP DP  RH WIND       PRES   REMARKS
RATON          CLEAR     58  54  86 E6        30.20F
CLAYTON        CLOUDY    63  59  87 W10       30.11F

$$
NMZ532>537-040800-
EASTCENTRAL PLAINS

CITY           SKY/WX    TMP DP  RH WIND       PRES   REMARKS
TUCUMCARI      PTCLDY    71  62  73 NE8       30.04R
CANNON AFB     CLEAR     66  63  91 S7        30.06F
CLOVIS AIRPORT PTCLDY    66  63  88 S9        30.07S

$$
NMZ028-029-538-040800-
SOUTHEAST PLAINS

CITY           SKY/WX    TMP DP  RH WIND       PRES   REMARKS
ROSWELL        CLEAR     69  63  81 S14       30.02F
ARTESIA        CLEAR     70  66  88 S7        30.05R
CARLSBAD       CLEAR     72  66  81 S9        30.02S
HOBBS            N/A    N/A N/A N/A MISG        N/A


$$



USA.gov is the U.S. government's official web portal to all federal, state and local government web resources and services.